Location: Daouli
(14.8671°N, 3.2030°W)
Time: 00:58:38
(UTC+00:00)

CSL-04 Debris - Pass Details

Date: 29 October 2020
Orbit: 827 x 848 km, 98.9° (Epoch: 02 December)

Event Time Altitude Azimuth Distance (km) Brightness Sun altitude
Rises 19:08:33 0° 154° (SSE) 3,362 7.2 -20.6°
Reaches altitude 10° 19:10:58 10° 149° (SSE) 2,432 6.4 -21.1°
Enters shadow 19:13:25 26° 136° (SE) 1,571 5.3 -21.7°
Exits shadow 19:16:44 47° 54° (NE) 1,100 4.4 -22.5°
Drops below altitude 10° 19:21:20 10° 2° (N) 2,448 6.5 -23.6°
Sets 19:23:46 0° 357° (N) 3,386 7.3 -24.2°
